Location: Spring Creek
(38.2870°N, 100.2160°W)
Time: 23:27:56
(UTC+00:00)

Cosmos 1933 - Pass Details

Date: 08 May 2021
Orbit: 547 x 562 km, 82.5° (Epoch: 21 June)

Event Time Altitude Azimuth Distance (km) Brightness Sun altitude
Exits shadow 02:43:05 18° 130° (SE) 1,395 4.7 -12.0°
Maximum altitude 02:44:59 26° 90° (E) 1,126 4.4 -12.4°
Drops below altitude 10° 02:48:21 10° 34° (NNE) 1,841 6.0 -12.9°
Sets 02:50:46 0° 21° (NNE) 2,737 7.1 -13.3°
